Year,Month,Day,Hour,Minute,Value (Times are PST for temperature in C)
2015,01,30,00,00,3.30
2015,01,30,00,01,3.30
2015,01,30,00,02,3.30
2015,01,30,00,03,3.30
2015,01,30,00,04,3.30
2015,01,30,00,05,3.30
2015,01,30,00,06,3.20
2015,01,30,00,07,3.20
2015,01,30,00,08,3.20
2015,01,30,00,09,3.20
2015,01,30,00,10,3.20
2015,01,30,00,11,3.20
2015,01,30,00,12,3.20
2015,01,30,00,13,3.20
2015,01,30,00,14,3.20
2015,01,30,00,15,3.20
2015,01,30,00,16,3.20
2015,01,30,00,17,3.20
2015,01,30,00,18,3.20
2015,01,30,00,19,3.20
2015,01,30,00,20,3.20
2015,01,30,00,21,3.20
2015,01,30,00,22,3.20
2015,01,30,00,23,3.20
2015,01,30,00,24,3.20
2015,01,30,00,25,3.20
2015,01,30,00,26,3.20
2015,01,30,00,27,3.20
2015,01,30,00,28,3.20
2015,01,30,00,29,3.30
2015,01,30,00,30,3.30
2015,01,30,00,31,3.20
2015,01,30,00,32,3.20
2015,01,30,00,33,3.20
2015,01,30,00,34,3.20
2015,01,30,00,35,3.20
2015,01,30,00,36,3.20
2015,01,30,00,37,3.20
2015,01,30,00,38,3.20
2015,01,30,00,39,3.20
2015,01,30,00,40,3.20
2015,01,30,00,41,3.20
2015,01,30,00,42,3.20
2015,01,30,00,43,3.20
2015,01,30,00,44,3.20
2015,01,30,00,45,3.20
2015,01,30,00,46,3.20
2015,01,30,00,47,3.20
2015,01,30,00,48,3.20
2015,01,30,00,49,3.20
2015,01,30,00,50,3.20
2015,01,30,00,51,3.10
2015,01,30,00,52,3.10
2015,01,30,00,53,3.10
2015,01,30,00,54,3.10
2015,01,30,00,55,3.10
2015,01,30,00,56,3.10
2015,01,30,00,57,3.10
2015,01,30,00,58,3.10
2015,01,30,00,59,3.10
2015,01,30,01,00,3.10
2015,01,30,01,01,3.00
2015,01,30,01,02,3.00
2015,01,30,01,03,3.00
2015,01,30,01,04,3.00
2015,01,30,01,05,3.00
2015,01,30,01,06,3.00
2015,01,30,01,07,3.00
2015,01,30,01,08,3.00
2015,01,30,01,09,3.00
2015,01,30,01,10,3.00
2015,01,30,01,11,3.00
2015,01,30,01,12,3.00
2015,01,30,01,13,3.00
2015,01,30,01,14,3.00
2015,01,30,01,15,3.00
2015,01,30,01,16,3.00
2015,01,30,01,17,3.00
2015,01,30,01,18,3.00
2015,01,30,01,19,3.00
2015,01,30,01,20,3.10
2015,01,30,01,21,3.10
2015,01,30,01,22,3.10
2015,01,30,01,23,3.10
2015,01,30,01,24,3.10
2015,01,30,01,25,3.10
2015,01,30,01,26,3.10
2015,01,30,01,27,3.10
2015,01,30,01,28,3.10
2015,01,30,01,29,3.10
2015,01,30,01,30,3.10
2015,01,30,01,31,3.10
2015,01,30,01,32,3.10
2015,01,30,01,33,3.10
2015,01,30,01,34,3.10
2015,01,30,01,35,3.10
2015,01,30,01,36,3.10
2015,01,30,01,37,3.10
2015,01,30,01,38,3.10
2015,01,30,01,39,3.10
2015,01,30,01,40,3.10
2015,01,30,01,41,3.10
2015,01,30,01,42,3.10
2015,01,30,01,43,3.20
2015,01,30,01,44,3.20
2015,01,30,01,45,3.20
2015,01,30,01,46,3.20
2015,01,30,01,47,3.20
2015,01,30,01,48,3.20
2015,01,30,01,49,3.20
2015,01,30,01,50,3.20
2015,01,30,01,51,3.20
2015,01,30,01,52,3.20
2015,01,30,01,53,3.20
2015,01,30,01,54,3.20
2015,01,30,01,55,3.20
2015,01,30,01,56,3.20
2015,01,30,01,57,3.20
2015,01,30,01,58,3.20
2015,01,30,01,59,3.20
2015,01,30,02,00,3.20
2015,01,30,02,01,3.20
2015,01,30,02,02,3.20
2015,01,30,02,03,3.20
2015,01,30,02,04,3.20
2015,01,30,02,05,3.20
2015,01,30,02,06,3.20
2015,01,30,02,07,3.20
2015,01,30,02,08,3.20
2015,01,30,02,09,3.20
2015,01,30,02,10,3.20
2015,01,30,02,11,3.20
2015,01,30,02,12,3.20
2015,01,30,02,13,3.20
2015,01,30,02,14,3.20
2015,01,30,02,15,3.20
2015,01,30,02,16,3.20
2015,01,30,02,17,3.20
2015,01,30,02,18,3.30
2015,01,30,02,19,3.30
2015,01,30,02,20,3.30
2015,01,30,02,21,3.30
2015,01,30,02,22,3.30
2015,01,30,02,23,3.30
2015,01,30,02,24,3.30
2015,01,30,02,25,3.30
2015,01,30,02,26,3.30
2015,01,30,02,27,3.30
2015,01,30,02,28,3.30
2015,01,30,02,29,3.30
2015,01,30,02,30,3.30
2015,01,30,02,31,3.30
2015,01,30,02,32,3.30
2015,01,30,02,33,3.30
2015,01,30,02,34,3.30
2015,01,30,02,35,3.30
2015,01,30,02,36,3.30
2015,01,30,02,37,3.30
2015,01,30,02,38,3.30
2015,01,30,02,39,3.30
2015,01,30,02,40,3.30
2015,01,30,02,41,3.30
2015,01,30,02,42,3.30
2015,01,30,02,43,3.30
2015,01,30,02,44,3.30
2015,01,30,02,45,3.30
2015,01,30,02,46,3.30
2015,01,30,02,47,3.30
2015,01,30,02,48,3.30
2015,01,30,02,49,3.20
2015,01,30,02,50,3.20
2015,01,30,02,51,3.20
2015,01,30,02,52,3.20
2015,01,30,02,53,3.20
2015,01,30,02,54,3.20
2015,01,30,02,55,3.20
2015,01,30,02,56,3.20
2015,01,30,02,57,3.20
2015,01,30,02,58,3.20
2015,01,30,02,59,3.20
2015,01,30,03,00,3.20
2015,01,30,03,01,3.20
2015,01,30,03,02,3.20
2015,01,30,03,03,3.20
2015,01,30,03,04,3.20
2015,01,30,03,05,3.20
2015,01,30,03,06,3.20
2015,01,30,03,07,3.20
2015,01,30,03,08,3.20
2015,01,30,03,09,3.20
2015,01,30,03,10,3.20
2015,01,30,03,11,3.20
2015,01,30,03,12,3.20
2015,01,30,03,13,3.20
2015,01,30,03,14,3.20
2015,01,30,03,15,3.20
2015,01,30,03,16,3.20
2015,01,30,03,17,3.20
2015,01,30,03,18,3.20
2015,01,30,03,19,3.20
2015,01,30,03,20,3.20
2015,01,30,03,21,3.20
2015,01,30,03,22,3.10
2015,01,30,03,23,3.10
2015,01,30,03,24,3.10
2015,01,30,03,25,3.10
2015,01,30,03,26,3.10
2015,01,30,03,27,3.10
2015,01,30,03,28,3.10
2015,01,30,03,29,3.10
2015,01,30,03,30,3.10
2015,01,30,03,31,3.10
2015,01,30,03,32,3.10
2015,01,30,03,33,3.10
2015,01,30,03,34,3.10
2015,01,30,03,35,3.10
2015,01,30,03,36,3.10
2015,01,30,03,37,3.10
2015,01,30,03,38,3.10
2015,01,30,03,39,3.10
2015,01,30,03,40,3.10
2015,01,30,03,41,3.10
2015,01,30,03,42,3.10
2015,01,30,03,43,3.10
2015,01,30,03,44,3.10
2015,01,30,03,45,3.10
2015,01,30,03,46,3.10
2015,01,30,03,47,3.10
2015,01,30,03,48,3.10
2015,01,30,03,49,3.10
2015,01,30,03,50,3.10
2015,01,30,03,51,3.10
2015,01,30,03,52,3.10
2015,01,30,03,53,3.10
2015,01,30,03,54,3.10
2015,01,30,03,55,3.10
2015,01,30,03,56,3.10
2015,01,30,03,57,3.10
2015,01,30,03,58,3.10
2015,01,30,03,59,3.10
2015,01,30,04,00,3.10
2015,01,30,04,01,3.10
2015,01,30,04,02,3.10
2015,01,30,04,03,3.10
2015,01,30,04,04,3.10
2015,01,30,04,05,3.10
2015,01,30,04,06,3.10
2015,01,30,04,07,3.10
2015,01,30,04,08,3.10
2015,01,30,04,09,3.10
2015,01,30,04,10,3.10
2015,01,30,04,11,3.10
2015,01,30,04,12,3.10
2015,01,30,04,13,3.10
2015,01,30,04,14,3.20
2015,01,30,04,15,3.10
2015,01,30,04,16,3.10
2015,01,30,04,17,3.20
2015,01,30,04,18,3.10
2015,01,30,04,19,3.10
2015,01,30,04,20,3.10
2015,01,30,04,21,3.10
2015,01,30,04,22,3.10
2015,01,30,04,23,3.20
2015,01,30,04,24,3.20
2015,01,30,04,25,3.20
2015,01,30,04,26,3.20
2015,01,30,04,27,3.20
2015,01,30,04,28,3.20
2015,01,30,04,29,3.20
2015,01,30,04,30,3.20
2015,01,30,04,31,3.20
2015,01,30,04,32,3.20
2015,01,30,04,33,3.20
2015,01,30,04,34,3.20
2015,01,30,04,35,3.20
2015,01,30,04,36,3.20
2015,01,30,04,37,3.20
2015,01,30,04,38,3.20
2015,01,30,04,39,3.20
2015,01,30,04,40,3.20
2015,01,30,04,41,3.20
2015,01,30,04,42,3.10
2015,01,30,04,43,3.10
2015,01,30,04,44,3.10
2015,01,30,04,45,3.10
2015,01,30,04,46,3.10
2015,01,30,04,47,3.10
2015,01,30,04,48,3.10
2015,01,30,04,49,3.10
2015,01,30,04,50,3.10
2015,01,30,04,51,3.10
2015,01,30,04,52,3.10
2015,01,30,04,53,3.10
2015,01,30,04,54,3.10
2015,01,30,04,55,3.10
2015,01,30,04,56,3.10
2015,01,30,04,57,3.10
2015,01,30,04,58,3.10
2015,01,30,04,59,3.10
2015,01,30,05,00,3.20
2015,01,30,05,01,3.20
2015,01,30,05,02,3.20
2015,01,30,05,03,3.20
2015,01,30,05,04,3.20
2015,01,30,05,05,3.20
2015,01,30,05,06,3.20
2015,01,30,05,07,3.20
2015,01,30,05,08,3.20
2015,01,30,05,09,3.20
2015,01,30,05,10,3.20
2015,01,30,05,11,3.20
2015,01,30,05,12,3.20
2015,01,30,05,13,3.20
2015,01,30,05,14,3.20
2015,01,30,05,15,3.20
2015,01,30,05,16,3.20
2015,01,30,05,17,3.20
2015,01,30,05,18,3.20
2015,01,30,05,19,3.20
2015,01,30,05,20,3.20
2015,01,30,05,21,3.20
2015,01,30,05,22,3.20
2015,01,30,05,23,3.20
2015,01,30,05,24,3.20
2015,01,30,05,25,3.20
2015,01,30,05,26,3.20
2015,01,30,05,27,3.20
2015,01,30,05,28,3.20
2015,01,30,05,29,3.20
2015,01,30,05,30,3.20
2015,01,30,05,31,3.20
2015,01,30,05,32,3.20
2015,01,30,05,33,3.20
2015,01,30,05,34,3.20
2015,01,30,05,35,3.20
2015,01,30,05,36,3.20
2015,01,30,05,37,3.20
2015,01,30,05,38,3.20
2015,01,30,05,39,3.20
2015,01,30,05,40,3.10
2015,01,30,05,41,3.10
2015,01,30,05,42,3.10
2015,01,30,05,43,3.10
2015,01,30,05,44,3.10
2015,01,30,05,45,3.10
2015,01,30,05,46,3.10
2015,01,30,05,47,3.10
2015,01,30,05,48,3.10
2015,01,30,05,49,3.10
2015,01,30,05,50,3.10
2015,01,30,05,51,3.10
2015,01,30,05,52,3.10
2015,01,30,05,53,3.10
2015,01,30,05,54,3.10
2015,01,30,05,55,3.10
2015,01,30,05,56,3.20
2015,01,30,05,57,3.10
2015,01,30,05,58,3.10
2015,01,30,05,59,3.20
2015,01,30,06,00,3.10
2015,01,30,06,01,3.10
2015,01,30,06,02,3.10
2015,01,30,06,03,3.10
2015,01,30,06,04,3.10
2015,01,30,06,05,3.10
2015,01,30,06,06,3.10
2015,01,30,06,07,3.10
2015,01,30,06,08,3.10
2015,01,30,06,09,3.10
2015,01,30,06,10,3.10
2015,01,30,06,11,3.10
2015,01,30,06,12,3.10
2015,01,30,06,13,3.10
2015,01,30,06,14,3.10
2015,01,30,06,15,3.10
2015,01,30,06,16,3.10
2015,01,30,06,17,3.10
2015,01,30,06,18,3.10
2015,01,30,06,19,3.10
2015,01,30,06,20,3.10
2015,01,30,06,21,3.10
2015,01,30,06,22,3.10
2015,01,30,06,23,3.10
2015,01,30,06,24,3.20
2015,01,30,06,25,3.20
2015,01,30,06,26,3.20
2015,01,30,06,27,3.20
2015,01,30,06,28,3.20
2015,01,30,06,29,3.20
2015,01,30,06,30,3.20
2015,01,30,06,31,3.20
2015,01,30,06,32,3.20
2015,01,30,06,33,3.20
2015,01,30,06,34,3.20
2015,01,30,06,35,3.20
2015,01,30,06,36,3.20
2015,01,30,06,37,3.20
2015,01,30,06,38,3.20
2015,01,30,06,39,3.20
2015,01,30,06,40,3.20
2015,01,30,06,41,3.20
2015,01,30,06,42,3.20
2015,01,30,06,43,3.20
2015,01,30,06,44,3.20
2015,01,30,06,45,3.20
2015,01,30,06,46,3.20
2015,01,30,06,47,3.20
2015,01,30,06,48,3.20
2015,01,30,06,49,3.20
2015,01,30,06,50,3.30
2015,01,30,06,51,3.30
2015,01,30,06,52,3.30
2015,01,30,06,53,3.30
2015,01,30,06,54,3.30
2015,01,30,06,55,3.30
2015,01,30,06,56,3.30
2015,01,30,06,57,3.30
2015,01,30,06,58,3.30
2015,01,30,06,59,3.30
2015,01,30,07,00,3.30
2015,01,30,07,01,3.30
2015,01,30,07,02,3.30
2015,01,30,07,03,3.30
2015,01,30,07,04,3.30
2015,01,30,07,05,3.30
2015,01,30,07,06,3.30
2015,01,30,07,07,3.30
2015,01,30,07,08,3.30
2015,01,30,07,09,3.30
2015,01,30,07,10,3.30
2015,01,30,07,11,3.30
2015,01,30,07,12,3.30
2015,01,30,07,13,3.40
2015,01,30,07,14,3.30
2015,01,30,07,15,3.40
2015,01,30,07,16,3.30
2015,01,30,07,17,3.40
2015,01,30,07,18,3.40
2015,01,30,07,19,3.40
2015,01,30,07,20,3.30
2015,01,30,07,21,3.40
2015,01,30,07,22,3.30
2015,01,30,07,23,3.30
2015,01,30,07,24,3.30
2015,01,30,07,25,3.30
2015,01,30,07,26,3.30
2015,01,30,07,27,3.30
2015,01,30,07,28,3.30
2015,01,30,07,29,3.30
2015,01,30,07,30,3.30
2015,01,30,07,31,3.30
2015,01,30,07,32,3.30
2015,01,30,07,33,3.40
2015,01,30,07,34,3.40
2015,01,30,07,35,3.40
2015,01,30,07,36,3.40
2015,01,30,07,37,3.40
2015,01,30,07,38,3.40
2015,01,30,07,39,3.40
2015,01,30,07,40,3.40
2015,01,30,07,41,3.40
2015,01,30,07,42,3.40
2015,01,30,07,43,3.40
2015,01,30,07,44,3.40
2015,01,30,07,45,3.40
2015,01,30,07,46,3.40
2015,01,30,07,47,3.40
2015,01,30,07,48,3.40
2015,01,30,07,49,3.40
2015,01,30,07,50,3.40
2015,01,30,07,51,3.40
2015,01,30,07,52,3.40
2015,01,30,07,53,3.40
2015,01,30,07,54,3.40
2015,01,30,07,55,3.40
2015,01,30,07,56,3.40
2015,01,30,07,57,3.40
2015,01,30,07,58,3.40
2015,01,30,07,59,3.40
2015,01,30,08,00,3.40
2015,01,30,08,01,3.40
2015,01,30,08,02,3.40
2015,01,30,08,03,3.40
2015,01,30,08,04,3.40
2015,01,30,08,05,3.40
2015,01,30,08,06,3.40
2015,01,30,08,07,3.40
2015,01,30,08,08,3.40
2015,01,30,08,09,3.40
2015,01,30,08,10,3.40
2015,01,30,08,11,3.30
2015,01,30,08,12,3.30
2015,01,30,08,13,3.30
2015,01,30,08,14,3.30
2015,01,30,08,15,3.30
2015,01,30,08,16,3.30
2015,01,30,08,17,3.30
2015,01,30,08,18,3.30
2015,01,30,08,19,3.30
2015,01,30,08,20,3.30
2015,01,30,08,21,3.30
2015,01,30,08,22,3.30
2015,01,30,08,23,3.30
2015,01,30,08,24,3.30
2015,01,30,08,25,3.30
2015,01,30,08,26,3.30
2015,01,30,08,27,3.30
2015,01,30,08,28,3.30
2015,01,30,08,29,3.30
2015,01,30,08,30,3.30
2015,01,30,08,31,3.30
2015,01,30,08,32,3.30
2015,01,30,08,33,3.30
2015,01,30,08,34,3.40
2015,01,30,08,35,3.30
2015,01,30,08,36,3.40
2015,01,30,08,37,3.40
2015,01,30,08,38,3.40
2015,01,30,08,39,3.40
2015,01,30,08,40,3.40
2015,01,30,08,41,3.40
2015,01,30,08,42,3.40
2015,01,30,08,43,3.40
2015,01,30,08,44,3.40
2015,01,30,08,45,3.40
2015,01,30,08,46,3.40
2015,01,30,08,47,3.40
2015,01,30,08,48,3.40
2015,01,30,08,49,3.40
2015,01,30,08,50,3.40
2015,01,30,08,51,3.40
2015,01,30,08,52,3.40
2015,01,30,08,53,3.40
2015,01,30,08,54,3.40
2015,01,30,08,55,3.40
2015,01,30,08,56,3.40
2015,01,30,08,57,3.40
2015,01,30,08,58,3.50
2015,01,30,08,59,3.50
2015,01,30,09,00,3.50
2015,01,30,09,01,3.50
2015,01,30,09,02,3.50
2015,01,30,09,03,3.50
2015,01,30,09,04,3.50
2015,01,30,09,05,3.60
2015,01,30,09,06,3.60
2015,01,30,09,07,3.60
2015,01,30,09,08,3.60
2015,01,30,09,09,3.60
2015,01,30,09,10,3.60
2015,01,30,09,11,3.60
2015,01,30,09,12,3.60
2015,01,30,09,13,3.60
2015,01,30,09,14,3.60
2015,01,30,09,15,3.60
2015,01,30,09,16,3.60
2015,01,30,09,17,3.60
2015,01,30,09,18,3.60
2015,01,30,09,19,3.60
2015,01,30,09,20,3.70
2015,01,30,09,21,3.70
2015,01,30,09,22,3.70
2015,01,30,09,23,3.60
2015,01,30,09,24,3.60
2015,01,30,09,25,3.60
2015,01,30,09,26,3.60
2015,01,30,09,27,3.60
2015,01,30,09,28,3.60
2015,01,30,09,29,3.60
2015,01,30,09,30,3.60
2015,01,30,09,31,3.60
2015,01,30,09,32,3.60
2015,01,30,09,33,3.60
2015,01,30,09,34,3.60
2015,01,30,09,35,3.60
2015,01,30,09,36,3.60
2015,01,30,09,37,3.70
2015,01,30,09,38,3.70
2015,01,30,09,39,3.70
2015,01,30,09,40,3.70
2015,01,30,09,41,3.70
2015,01,30,09,42,3.70
2015,01,30,09,43,3.70
2015,01,30,09,44,3.70
2015,01,30,09,45,3.70
2015,01,30,09,46,3.70
2015,01,30,09,47,3.70
2015,01,30,09,48,3.70
2015,01,30,09,49,3.70
2015,01,30,09,50,3.70
2015,01,30,09,51,3.70
2015,01,30,09,52,3.70
2015,01,30,09,53,3.80
2015,01,30,09,54,3.80
2015,01,30,09,55,3.80
2015,01,30,09,56,3.80
2015,01,30,09,57,3.80
2015,01,30,09,58,3.80
2015,01,30,09,59,3.80
2015,01,30,10,00,3.80
2015,01,30,10,01,3.80
2015,01,30,10,02,3.80
2015,01,30,10,03,3.80
2015,01,30,10,04,3.80
2015,01,30,10,05,3.80
2015,01,30,10,06,3.80
2015,01,30,10,07,3.80
2015,01,30,10,08,3.80
2015,01,30,10,09,3.70
2015,01,30,10,10,3.70
2015,01,30,10,11,3.70
2015,01,30,10,12,3.70
2015,01,30,10,13,3.70
2015,01,30,10,14,3.70
2015,01,30,10,15,3.70
2015,01,30,10,16,3.70
2015,01,30,10,17,3.70
2015,01,30,10,18,3.70
2015,01,30,10,19,3.70
2015,01,30,10,20,3.70
2015,01,30,10,21,3.70
2015,01,30,10,22,3.70
2015,01,30,10,23,3.70
2015,01,30,10,24,3.60
2015,01,30,10,25,3.60
2015,01,30,10,26,3.60
2015,01,30,10,27,3.60
2015,01,30,10,28,3.60
2015,01,30,10,29,3.60
2015,01,30,10,30,3.60
2015,01,30,10,31,3.60
2015,01,30,10,32,3.60
2015,01,30,10,33,3.60
2015,01,30,10,34,3.70
2015,01,30,10,35,3.70
2015,01,30,10,36,3.60
2015,01,30,10,37,3.60
2015,01,30,10,38,3.70
2015,01,30,10,39,3.70
2015,01,30,10,40,3.70
2015,01,30,10,41,3.70
2015,01,30,10,42,3.70
2015,01,30,10,43,3.70
2015,01,30,10,44,3.70
2015,01,30,10,45,3.70
2015,01,30,10,46,3.60
2015,01,30,10,47,3.70
2015,01,30,10,48,3.70
2015,01,30,10,49,3.70
2015,01,30,10,50,3.70
2015,01,30,10,51,3.70
2015,01,30,10,52,3.70
2015,01,30,10,53,3.70
2015,01,30,10,54,3.70
2015,01,30,10,55,3.70
2015,01,30,10,56,3.70
2015,01,30,10,57,3.70
2015,01,30,10,58,3.80
2015,01,30,10,59,3.80
2015,01,30,11,00,3.80
2015,01,30,11,01,3.80
2015,01,30,11,02,3.80
2015,01,30,11,03,3.80
2015,01,30,11,04,3.70
2015,01,30,11,05,3.70
2015,01,30,11,06,3.70
2015,01,30,11,07,3.70
2015,01,30,11,08,3.70
2015,01,30,11,09,3.70
2015,01,30,11,10,3.70
2015,01,30,11,11,3.70
2015,01,30,11,12,3.70
2015,01,30,11,13,3.70
2015,01,30,11,14,3.70
2015,01,30,11,15,3.70
2015,01,30,11,16,3.70
2015,01,30,11,17,3.70
2015,01,30,11,18,3.70
2015,01,30,11,19,3.70
2015,01,30,11,20,3.70
2015,01,30,11,21,3.80
2015,01,30,11,22,3.80
2015,01,30,11,23,3.80
2015,01,30,11,24,3.80
2015,01,30,11,25,3.80
2015,01,30,11,26,3.90
2015,01,30,11,27,3.90
2015,01,30,11,28,3.90
2015,01,30,11,29,3.90
2015,01,30,11,30,3.90
2015,01,30,11,31,3.90
2015,01,30,11,32,3.90
2015,01,30,11,33,3.90
2015,01,30,11,34,3.80
2015,01,30,11,35,3.80
2015,01,30,11,36,3.80
2015,01,30,11,37,3.80
2015,01,30,11,38,3.80
2015,01,30,11,39,3.80
2015,01,30,11,40,3.80
2015,01,30,11,41,3.80
2015,01,30,11,42,3.80
2015,01,30,11,43,3.80
2015,01,30,11,44,3.80
2015,01,30,11,45,3.80
2015,01,30,11,46,3.80
2015,01,30,11,47,3.80
2015,01,30,11,48,3.80
2015,01,30,11,49,3.80
2015,01,30,11,50,3.80
2015,01,30,11,51,3.80
2015,01,30,11,52,3.80
2015,01,30,11,53,3.80
2015,01,30,11,54,3.80
2015,01,30,11,55,3.80
2015,01,30,11,56,3.80
2015,01,30,11,57,3.80
2015,01,30,11,58,3.80
2015,01,30,11,59,3.80
2015,01,30,12,00,3.80
2015,01,30,12,01,3.80
2015,01,30,12,02,3.80
2015,01,30,12,03,3.80
2015,01,30,12,04,3.80
2015,01,30,12,05,3.90
2015,01,30,12,06,3.90
2015,01,30,12,07,3.90
2015,01,30,12,08,3.90
2015,01,30,12,09,3.90
2015,01,30,12,10,3.90
2015,01,30,12,11,3.90
2015,01,30,12,12,3.90
2015,01,30,12,13,3.90
2015,01,30,12,14,3.90
2015,01,30,12,15,3.90
2015,01,30,12,16,3.90
2015,01,30,12,17,3.90
2015,01,30,12,18,3.90
2015,01,30,12,19,3.90
2015,01,30,12,20,3.90
2015,01,30,12,21,3.90
2015,01,30,12,22,3.90
2015,01,30,12,23,3.90
2015,01,30,12,24,4.00
2015,01,30,12,25,4.00
2015,01,30,12,26,4.00
2015,01,30,12,27,4.00
2015,01,30,12,28,3.90
2015,01,30,12,29,3.90
2015,01,30,12,30,3.90
2015,01,30,12,31,3.90
2015,01,30,12,32,3.90
2015,01,30,12,33,3.90
2015,01,30,12,34,3.90
2015,01,30,12,35,3.90
2015,01,30,12,36,3.90
2015,01,30,12,37,3.90
2015,01,30,12,38,3.90
2015,01,30,12,39,3.90
2015,01,30,12,40,3.90
2015,01,30,12,41,3.90
2015,01,30,12,42,3.90
2015,01,30,12,43,3.90
2015,01,30,12,44,3.90
2015,01,30,12,45,3.90
2015,01,30,12,46,3.90
2015,01,30,12,47,3.90
2015,01,30,12,48,4.00
2015,01,30,12,49,4.00
2015,01,30,12,50,4.10
2015,01,30,12,51,4.10
2015,01,30,12,52,4.10
2015,01,30,12,53,4.10
2015,01,30,12,54,4.00
2015,01,30,12,55,4.00
2015,01,30,12,56,4.10
2015,01,30,12,57,4.00
2015,01,30,12,58,4.00
2015,01,30,12,59,4.00
2015,01,30,13,00,3.90
2015,01,30,13,01,3.90
2015,01,30,13,02,3.90
2015,01,30,13,03,3.90
2015,01,30,13,04,3.90
2015,01,30,13,05,3.90
2015,01,30,13,06,3.90
2015,01,30,13,07,3.90
2015,01,30,13,08,3.90
2015,01,30,13,09,3.90
2015,01,30,13,10,3.90
2015,01,30,13,11,3.90
2015,01,30,13,12,3.90
2015,01,30,13,13,4.00
2015,01,30,13,14,4.00
2015,01,30,13,15,4.00
2015,01,30,13,16,4.00
2015,01,30,13,17,4.00
2015,01,30,13,18,4.10
2015,01,30,13,19,4.00
2015,01,30,13,20,4.00
2015,01,30,13,21,4.00
2015,01,30,13,22,4.00
2015,01,30,13,23,4.00
2015,01,30,13,24,4.00
2015,01,30,13,25,4.00
2015,01,30,13,26,4.10
2015,01,30,13,27,4.10
2015,01,30,13,28,4.10
2015,01,30,13,29,4.10
2015,01,30,13,30,4.10
2015,01,30,13,31,4.10
2015,01,30,13,32,4.10
2015,01,30,13,33,4.10
2015,01,30,13,34,4.10
2015,01,30,13,35,4.10
2015,01,30,13,36,4.10
2015,01,30,13,37,4.10
2015,01,30,13,38,4.10
2015,01,30,13,39,4.20
2015,01,30,13,40,4.20
2015,01,30,13,41,4.20
2015,01,30,13,42,4.30
2015,01,30,13,43,4.30
2015,01,30,13,44,4.30
2015,01,30,13,45,4.30
2015,01,30,13,46,4.30
2015,01,30,13,47,4.30
2015,01,30,13,48,4.30
2015,01,30,13,49,4.30
2015,01,30,13,50,4.40
2015,01,30,13,51,4.30
2015,01,30,13,52,4.30
2015,01,30,13,53,4.30
2015,01,30,13,54,4.30
2015,01,30,13,55,4.30
2015,01,30,13,56,4.30
2015,01,30,13,57,4.30
2015,01,30,13,58,4.30
2015,01,30,13,59,4.30
2015,01,30,14,00,4.30
2015,01,30,14,01,4.30
2015,01,30,14,02,4.30
2015,01,30,14,03,4.30
2015,01,30,14,04,4.30
2015,01,30,14,05,4.30
2015,01,30,14,06,4.30
2015,01,30,14,07,4.30
2015,01,30,14,08,4.30
2015,01,30,14,09,4.30
2015,01,30,14,10,4.30
2015,01,30,14,11,4.30
2015,01,30,14,12,4.30
2015,01,30,14,13,4.30
2015,01,30,14,14,4.30
2015,01,30,14,15,4.40
2015,01,30,14,16,4.40
2015,01,30,14,17,4.40
2015,01,30,14,18,4.40
2015,01,30,14,19,4.40
2015,01,30,14,20,4.40
2015,01,30,14,21,4.40
2015,01,30,14,22,4.40
2015,01,30,14,23,4.50
2015,01,30,14,24,4.50
2015,01,30,14,25,4.50
2015,01,30,14,26,4.40
2015,01,30,14,27,4.40
2015,01,30,14,28,4.40
2015,01,30,14,29,4.40
2015,01,30,14,30,4.40
2015,01,30,14,31,4.40
2015,01,30,14,32,4.40
2015,01,30,14,33,4.40
2015,01,30,14,34,4.40
2015,01,30,14,35,4.40
2015,01,30,14,36,4.40
2015,01,30,14,37,4.40
2015,01,30,14,38,4.40
2015,01,30,14,39,4.40
2015,01,30,14,40,4.40
2015,01,30,14,41,4.50
2015,01,30,14,42,4.50
2015,01,30,14,43,4.60
2015,01,30,14,44,4.60
2015,01,30,14,45,4.60
2015,01,30,14,46,4.60
2015,01,30,14,47,4.70
2015,01,30,14,48,4.70
2015,01,30,14,49,4.70
2015,01,30,14,50,4.70
2015,01,30,14,51,4.70
2015,01,30,14,52,4.70
2015,01,30,14,53,4.80
2015,01,30,14,54,4.70
2015,01,30,14,55,4.70
2015,01,30,14,56,4.70
2015,01,30,14,57,4.70
2015,01,30,14,58,4.70
2015,01,30,14,59,4.70
2015,01,30,15,00,4.70
2015,01,30,15,01,4.70
2015,01,30,15,02,4.70
2015,01,30,15,03,4.60
2015,01,30,15,04,4.60
2015,01,30,15,05,4.60
2015,01,30,15,06,4.60
2015,01,30,15,07,4.60
2015,01,30,15,08,4.60
2015,01,30,15,09,4.60
2015,01,30,15,10,4.60
2015,01,30,15,11,4.60
2015,01,30,15,12,4.60
2015,01,30,15,13,4.60
2015,01,30,15,14,4.60
2015,01,30,15,15,4.60
2015,01,30,15,16,4.60
2015,01,30,15,17,4.60
2015,01,30,15,18,4.60
2015,01,30,15,19,4.60
2015,01,30,15,20,4.70
2015,01,30,15,21,4.70
2015,01,30,15,22,4.70
2015,01,30,15,23,4.70
2015,01,30,15,24,4.70
2015,01,30,15,25,4.70
2015,01,30,15,26,4.60
2015,01,30,15,27,4.60
2015,01,30,15,28,4.60
2015,01,30,15,29,4.60
2015,01,30,15,30,4.60
2015,01,30,15,31,4.60
2015,01,30,15,32,4.60
2015,01,30,15,33,4.60
2015,01,30,15,34,4.70
2015,01,30,15,35,4.60
2015,01,30,15,36,4.60
2015,01,30,15,37,4.60
2015,01,30,15,38,4.60
2015,01,30,15,39,4.60
2015,01,30,15,40,4.60
2015,01,30,15,41,4.60
2015,01,30,15,42,4.50
2015,01,30,15,43,4.50
2015,01,30,15,44,4.50
2015,01,30,15,45,4.40
2015,01,30,15,46,4.40
2015,01,30,15,47,4.40
2015,01,30,15,48,4.40
2015,01,30,15,49,4.50
2015,01,30,15,50,4.50
2015,01,30,15,51,4.50
2015,01,30,15,52,4.50
2015,01,30,15,53,4.50
2015,01,30,15,54,4.50
2015,01,30,15,55,4.60
2015,01,30,15,56,4.60
2015,01,30,15,57,4.60
2015,01,30,15,58,4.60
2015,01,30,15,59,4.60
2015,01,30,16,00,4.60
2015,01,30,16,01,4.60
2015,01,30,16,02,4.50
2015,01,30,16,03,4.50
2015,01,30,16,04,4.50
2015,01,30,16,05,4.60
2015,01,30,16,06,4.60
2015,01,30,16,07,4.70
2015,01,30,16,08,4.70
2015,01,30,16,09,4.70
2015,01,30,16,10,4.70
2015,01,30,16,11,4.70
2015,01,30,16,12,4.60
2015,01,30,16,13,4.60
2015,01,30,16,14,4.60
2015,01,30,16,15,4.60
2015,01,30,16,16,4.60
2015,01,30,16,17,4.60
2015,01,30,16,18,4.60
2015,01,30,16,19,4.50
2015,01,30,16,20,4.50
2015,01,30,16,21,4.50
2015,01,30,16,22,4.50
2015,01,30,16,23,4.50
2015,01,30,16,24,4.50
2015,01,30,16,25,4.50
2015,01,30,16,26,4.50
2015,01,30,16,27,4.50
2015,01,30,16,28,4.50
2015,01,30,16,29,4.60
2015,01,30,16,30,4.60
2015,01,30,16,31,4.60
2015,01,30,16,32,4.60
2015,01,30,16,33,4.60
2015,01,30,16,34,4.60
2015,01,30,16,35,4.60
2015,01,30,16,36,4.60
2015,01,30,16,37,4.60
2015,01,30,16,38,4.60
2015,01,30,16,39,4.60
2015,01,30,16,40,4.60
2015,01,30,16,41,4.60
2015,01,30,16,42,4.60
2015,01,30,16,43,4.60
2015,01,30,16,44,4.60
2015,01,30,16,45,4.60
2015,01,30,16,46,4.60
2015,01,30,16,47,4.60
2015,01,30,16,48,4.60
2015,01,30,16,49,4.60
2015,01,30,16,50,4.60
2015,01,30,16,51,4.60
2015,01,30,16,52,4.60
2015,01,30,16,53,4.60
2015,01,30,16,54,4.60
2015,01,30,16,55,4.60
2015,01,30,16,56,4.60
2015,01,30,16,57,4.60
2015,01,30,16,58,4.60
2015,01,30,16,59,4.60
2015,01,30,17,00,4.60
2015,01,30,17,01,4.60
2015,01,30,17,02,4.60
2015,01,30,17,03,4.60
2015,01,30,17,04,4.60
2015,01,30,17,05,4.60
2015,01,30,17,06,4.60
2015,01,30,17,07,4.60
2015,01,30,17,08,4.60
2015,01,30,17,09,4.60
2015,01,30,17,10,4.60
2015,01,30,17,11,4.60
2015,01,30,17,12,4.60
2015,01,30,17,13,4.60
2015,01,30,17,14,4.60
2015,01,30,17,15,4.60
2015,01,30,17,16,4.60
2015,01,30,17,17,4.60
2015,01,30,17,18,4.60
2015,01,30,17,19,4.60
2015,01,30,17,20,4.60
2015,01,30,17,21,4.60
2015,01,30,17,22,4.60
2015,01,30,17,23,4.60
2015,01,30,17,24,4.60
2015,01,30,17,25,4.60
2015,01,30,17,26,4.60
2015,01,30,17,27,4.60
2015,01,30,17,28,4.60
2015,01,30,17,29,4.60
2015,01,30,17,30,4.60
2015,01,30,17,31,4.60
2015,01,30,17,32,4.60
2015,01,30,17,33,4.60
2015,01,30,17,34,4.60
2015,01,30,17,35,4.60
2015,01,30,17,36,4.60
2015,01,30,17,37,4.60
2015,01,30,17,38,4.60
2015,01,30,17,39,4.60
2015,01,30,17,40,4.60
2015,01,30,17,41,4.60
2015,01,30,17,42,4.60
2015,01,30,17,43,4.60
2015,01,30,17,44,4.60
2015,01,30,17,45,4.60
2015,01,30,17,46,4.60
2015,01,30,17,47,4.60
2015,01,30,17,48,4.60
2015,01,30,17,49,4.60
2015,01,30,17,50,4.60
2015,01,30,17,51,4.60
2015,01,30,17,52,4.60
2015,01,30,17,53,4.60
2015,01,30,17,54,4.60
2015,01,30,17,55,4.60
2015,01,30,17,56,4.60
2015,01,30,17,57,4.60
2015,01,30,17,58,4.60
2015,01,30,17,59,4.60
2015,01,30,18,00,4.60
2015,01,30,18,01,4.60
2015,01,30,18,02,4.50
2015,01,30,18,03,4.50
2015,01,30,18,04,4.50
2015,01,30,18,05,4.50
2015,01,30,18,06,4.50